Powrót do katalogu

STARLINK-32172

AktywnyŁącznośćVLEO
NORAD 61518·PAYLOAD·🇺🇸 United States

Wystrzelony Oct 15, 2024 z Cape Canaveral Space Force Station

Loading…

Następne Przeloty (najbliższe 24 godziny)

TLE

ŚwieżeSource: CelesTrak SupGP

Epoka: Sep 14, 2026, 14:06 UTC

1 61518C 24183K   26257.58798611  .00010406  00000+0  33470-3 0  2573
2 61518  53.1608 343.4466 0001280  74.7330   8.6422 15.31689124    14

Śledź STARLINK-32172 w czasie rzeczywistym z AllMySat

Download on the App Store